User: anonymous   Login
Location: Hickory_CSC
(35.7330°N, 81.3330°W)
Time: 09:49:15
(UTC-04:00)
Language:

Cosmos 1356 Rocket - Orbit

View from above orbital plane
View from above orbital plane
View from above satellite
View from above satellite

Ground track
Ground track

The orbit data is extracted from the following two-line orbital elements,

1 13154U 82039B   16270.14914030  .00000503  00000-0  39796-4 0  9990
2 13154  81.1857 168.5180 0041637  71.5594 289.0144 14.98137347864202
Epoch (UTC): 26 September 2016 03:34:45
Eccentricity: 0.0041637
inclination: 81.1857°
perigee height: 544 km
apogee height: 601 km
right ascension of ascending node: 168.5180°
argument of perigee: 71.5594°
revolutions per day: 14.98137347
mean anomaly at epoch: 289.0144°
orbit number at epoch: 86420

The dashed part of the orbit path shows where the satellite is in the earth's shadow,  

DLR